Zurück zum Katalog

ONEWEB-0675

AktivKommunikationPO
NORAD 55834·PAYLOAD·🇬🇧 United Kingdom

Gestartet Mar 9, 2023 von Cape Canaveral Space Force Station

Loading…

Nächste Überflüge (nächste 24 Stunden)

TLE

AktuellSource: CelesTrak SupGP

Epoche: Sep 14, 2026, 19:55 UTC

1 55834C 23029AQ  26257.83037455 -.00000518  00000+0 -12947-2 0  2575
2 55834  87.9108 287.1178 0001681  95.7690 300.7970 13.19726836    19

Verfolge ONEWEB-0675 in Echtzeit mit AllMySat

Download on the App Store